Location: *
(50.3194°N, 7.1067°E)
Time: 20:22:54
(UTC+00:00)

Timation 2 Rocket - Pass Details

Date: 22 September 2019
Orbit: 908 x 1074 km, 70.0° (Epoch: 17 October)

Event Time Altitude Azimuth Distance (km) Brightness Sun altitude
Rises 18:04:30 0° 214° (SW) 3,763 7.4 -6.2°
Reaches altitude 10° 18:07:08 10° 216° (SW) 2,792 6.8 -6.6°
Maximum altitude 18:13:39 78° 303° (WNW) 1,010 4.3 -7.7°
Drops below altitude 10° 18:19:56 10° 30° (NNE) 2,690 6.1 -8.7°
Sets 18:22:26 0° 31° (NNE) 3,617 6.8 -9.1°
